This is the latest recevied weather packets stored in our database for station/object N8HKU-5. If no packets are shown the sender has not sent any weather packets the latest 10 day(s).
| Time | Temp. | Humidity | Pressure | Rain* | Wind** | Luminosity | Snow |
|---|---|---|---|---|---|---|---|
| 1777434153 | 9.44° C | 91% | 1011.1 hPa | 0 mm | - | - | - |
| 1777433553 | 9.44° C | 91% | 1011.3 hPa | 0 mm | - | - | - |
| 1777432953 | 10° C | 91% | 1011.4 hPa | 0 mm | - | - | - |
| 1777432353 | 10° C | 91% | 1011.8 hPa | 0 mm | - | - | - |
| 1777431753 | 10° C | 91% | 1011.9 hPa | 0 mm | - | - | - |
| 1777431154 | 9.44° C | 91% | 1011.8 hPa | 0 mm | - | - | - |
| 1777430553 | 9.44° C | 91% | 1011.8 hPa | 0 mm | - | - | - |
| 1777429953 | 9.44° C | 91% | 1011.5 hPa | 0 mm | - | - | - |
| 1777429353 | 9.44° C | 91% | 1011.4 hPa | 0 mm | - | - | - |
| 1777428753 | 9.44° C | 90% | 1011.6 hPa | 0 mm | - | - | - |
| 1777428153 | 9.44° C | 89% | 1011.4 hPa | 0 mm | - | - | - |
| 1777427553 | 9.44° C | 89% | 1010.8 hPa | 0 mm | - | - | - |
| 1777426953 | 10° C | 89% | 1010.8 hPa | 0 mm | - | - | - |
| 1777426353 | 10° C | 87% | 1010.3 hPa | 0 mm | - | - | - |
| 1777425754 | 10° C | 84% | 1010.2 hPa | 0 mm | - | - | - |
| 1777425153 | 10.56° C | 84% | 1010.2 hPa | 0 mm | - | - | - |
| 1777424553 | 11.11° C | 83% | 1010.2 hPa | 0 mm | - | - | - |
| 1777423953 | 11.67° C | 80% | 1010.1 hPa | 0 mm | - | - | - |
| 1777423354 | 12.78° C | 77% | 1010.1 hPa | 0 mm | - | - | - |
| 1777422754 | 13.33° C | 75% | 1010.2 hPa | 0 mm | - | - | - |
| 1777422153 | 14.44° C | 74% | 1010.3 hPa | 0 mm | - | - | - |
| 1777421554 | 15° C | 71% | 1010 hPa | 0 mm | - | - | - |
| 1777420954 | 15.56° C | 70% | 1010.3 hPa | 0 mm | - | - | - |
| 1777420353 | 15.56° C | 69% | 1010.1 hPa | 0 mm | - | - | - |
| 1777419753 | 15.56° C | 69% | 1010.4 hPa | 0 mm | - | - | - |
* Rain latest hour (hover to see other rain measurements)
** Current wind speed in m/s (hover to see current wind gust speed)